Time,TemperatureF,DewpointF,PressureIn,WindDirection,WindDirectionDegrees,WindSpeedMPH,WindSpeedGustMPH,Humidity,HourlyPrecipIn,Conditions,Clouds,dailyrainin,SoftwareType,DateUTC
2013-01-06 00:03:00,33.8,25.0,30.16,SSW,208,0.0,3.0,71,0.00,,,0.00,weatherlink.com 1.10,2013-01-06 05:03:00,
2013-01-06 00:18:00,33.8,25.0,30.16,South,176,0.0,3.0,71,0.00,,,0.00,weatherlink.com 1.10,2013-01-06 05:18:00,
2013-01-06 00:34:00,33.7,25.0,30.16,SSE,167,1.0,4.0,71,0.00,,,0.00,weatherlink.com 1.10,2013-01-06 05:34:00,
2013-01-06 00:49:00,33.7,25.0,30.14,SSE,154,2.0,4.0,71,0.00,,,0.00,weatherlink.com 1.10,2013-01-06 05:49:00,
2013-01-06 01:04:00,33.7,25.0,30.14,SSW,197,1.0,4.0,71,0.00,,,0.00,weatherlink.com 1.10,2013-01-06 06:04:00,
2013-01-06 01:19:00,33.8,25.0,30.14,South,176,2.0,4.0,71,0.00,,,0.00,weatherlink.com 1.10,2013-01-06 06:19:00,
2013-01-06 01:34:00,33.9,26.0,30.14,SSE,149,4.0,4.0,72,0.00,,,0.00,weatherlink.com 1.10,2013-01-06 06:34:00,
2013-01-06 01:49:00,34.0,26.0,30.14,South,186,2.0,5.0,72,0.00,,,0.00,weatherlink.com 1.10,2013-01-06 06:49:00,
2013-01-06 02:04:00,34.0,26.0,30.14,West,276,1.0,3.0,71,0.00,,,0.00,weatherlink.com 1.10,2013-01-06 07:04:00,
2013-01-06 02:19:00,34.1,26.0,30.13,SSE,166,1.0,3.0,71,0.00,,,0.00,weatherlink.com 1.10,2013-01-06 07:19:00,
2013-01-06 02:34:00,34.2,26.0,30.13,SW,235,1.0,3.0,71,0.00,,,0.00,weatherlink.com 1.10,2013-01-06 07:34:00,
2013-01-06 02:49:00,34.2,26.0,30.13,SSW,211,0.0,4.0,71,0.00,,,0.00,weatherlink.com 1.10,2013-01-06 07:49:00,
2013-01-06 03:04:00,34.3,26.0,30.12,SSE,166,1.0,5.0,71,0.00,,,0.00,weatherlink.com 1.10,2013-01-06 08:04:00,
2013-01-06 03:19:00,34.3,26.0,30.12,SE,134,1.0,3.0,72,0.00,,,0.00,weatherlink.com 1.10,2013-01-06 08:19:00,
2013-01-06 03:34:00,34.3,26.0,30.12,WSW,246,1.0,3.0,72,0.00,,,0.00,weatherlink.com 1.10,2013-01-06 08:34:00,
2013-01-06 03:49:00,34.4,26.0,30.11,SSW,194,0.0,4.0,72,0.00,,,0.00,weatherlink.com 1.10,2013-01-06 08:49:00,
2013-01-06 04:04:00,34.3,26.0,30.11,SSW,212,1.0,2.0,73,0.00,,,0.00,weatherlink.com 1.10,2013-01-06 09:04:00,
2013-01-06 04:19:00,34.4,26.0,30.10,South,172,1.0,5.0,72,0.00,,,0.00,weatherlink.com 1.10,2013-01-06 09:19:00,
2013-01-06 04:34:00,34.4,27.0,30.10,South,172,0.0,5.0,73,0.00,,,0.00,weatherlink.com 1.10,2013-01-06 09:34:00,
2013-01-06 04:49:00,34.3,26.0,30.09,SW,224,3.0,4.0,73,0.00,,,0.00,weatherlink.com 1.10,2013-01-06 09:49:00,
2013-01-06 05:04:00,34.1,26.0,30.08,SSW,212,3.0,4.0,73,0.00,,,0.00,weatherlink.com 1.10,2013-01-06 10:04:00,
2013-01-06 05:34:00,33.4,26.0,30.09,SSW,194,0.0,4.0,75,0.00,,,0.00,weatherlink.com 1.10,2013-01-06 10:34:00,
2013-01-06 05:49:00,33.2,26.0,30.09,West,260,0.0,3.0,75,0.00,,,0.00,weatherlink.com 1.10,2013-01-06 10:49:00,
2013-01-06 06:04:00,33.2,26.0,30.08,West,273,0.0,3.0,75,0.00,,,0.00,weatherlink.com 1.10,2013-01-06 11:04:00,
2013-01-06 06:19:00,33.0,26.0,30.08,South,177,0.0,3.0,75,0.00,,,0.00,weatherlink.com 1.10,2013-01-06 11:19:00,
2013-01-06 06:34:00,33.1,26.0,30.08,SSE,159,1.0,3.0,75,0.00,,,0.00,weatherlink.com 1.10,2013-01-06 11:34:00,
2013-01-06 06:49:00,33.2,26.0,30.09,West,270,1.0,3.0,76,0.00,,,0.00,weatherlink.com 1.10,2013-01-06 11:49:00,
2013-01-06 07:04:00,33.3,26.0,30.08,SSW,194,0.0,4.0,75,0.00,,,0.00,weatherlink.com 1.10,2013-01-06 12:04:00,
2013-01-06 07:19:00,33.5,26.0,30.08,SSW,212,2.0,4.0,75,0.00,,,0.00,weatherlink.com 1.10,2013-01-06 12:19:00,
2013-01-06 07:35:00,33.6,26.0,30.08,SW,235,1.0,4.0,75,0.00,,,0.00,weatherlink.com 1.10,2013-01-06 12:35:00,
2013-01-06 07:50:00,33.7,27.0,30.07,SSW,208,1.0,4.0,75,0.00,,,0.00,weatherlink.com 1.10,2013-01-06 12:50:00,
2013-01-06 08:05:00,33.8,27.0,30.08,WSW,252,0.0,3.0,75,0.00,,,0.00,weatherlink.com 1.10,2013-01-06 13:05:00,
2013-01-06 08:20:00,34.0,27.0,30.08,South,181,1.0,4.0,75,0.00,,,0.00,weatherlink.com 1.10,2013-01-06 13:20:00,
2013-01-06 08:35:00,34.2,27.0,30.08,SSE,150,1.0,5.0,74,0.00,,,0.00,weatherlink.com 1.10,2013-01-06 13:35:00,
2013-01-06 08:50:00,34.4,27.0,30.08,South,185,1.0,4.0,74,0.00,,,0.00,weatherlink.com 1.10,2013-01-06 13:50:00,
2013-01-06 09:05:00,34.7,27.0,30.08,SSW,212,2.0,3.0,74,0.00,,,0.00,weatherlink.com 1.10,2013-01-06 14:05:00,
2013-01-06 09:20:00,34.8,27.0,30.08,SSE,158,1.0,5.0,74,0.00,,,0.00,weatherlink.com 1.10,2013-01-06 14:20:00,
2013-01-06 09:35:00,35.1,27.0,30.08,SSE,149,1.0,6.0,73,0.00,,,0.00,weatherlink.com 1.10,2013-01-06 14:35:00,
2013-01-06 09:50:00,35.3,27.0,30.08,SSW,192,1.0,5.0,73,0.00,,,0.00,weatherlink.com 1.10,2013-01-06 14:50:00,
2013-01-06 10:05:00,35.6,28.0,30.07,SSW,207,2.0,6.0,74,0.00,,,0.00,weatherlink.com 1.10,2013-01-06 15:05:00,
2013-01-06 10:20:00,35.9,28.0,30.07,WSW,238,3.0,6.0,73,0.00,,,0.00,weatherlink.com 1.10,2013-01-06 15:20:00,
2013-01-06 10:35:00,36.4,29.0,30.07,WSW,248,2.0,5.0,73,0.00,,,0.00,weatherlink.com 1.10,2013-01-06 15:35:00,
2013-01-06 10:50:00,36.8,29.0,30.07,SW,232,4.0,5.0,72,0.00,,,0.00,weatherlink.com 1.10,2013-01-06 15:50:00,
2013-01-06 11:05:00,37.2,29.0,30.06,SSW,212,3.0,9.0,71,0.00,,,0.00,weatherlink.com 1.10,2013-01-06 16:05:00,
2013-01-06 11:20:00,37.5,29.0,30.06,South,180,3.0,6.0,70,0.00,,,0.00,weatherlink.com 1.10,2013-01-06 16:20:00,
2013-01-06 11:35:00,37.6,28.0,30.05,SW,218,3.0,10.0,69,0.00,,,0.00,weatherlink.com 1.10,2013-01-06 16:35:00,
2013-01-06 11:50:00,37.6,29.0,30.04,SSE,167,4.0,6.0,70,0.01,,,0.01,weatherlink.com 1.10,2013-01-06 16:50:00,
2013-01-06 12:05:00,37.5,29.0,30.03,South,183,3.0,8.0,70,0.01,,,0.01,weatherlink.com 1.10,2013-01-06 17:05:00,
2013-01-06 12:20:00,37.8,29.0,30.02,SSW,198,1.0,5.0,70,0.01,,,0.01,weatherlink.com 1.10,2013-01-06 17:20:00,
2013-01-06 12:35:00,38.2,29.0,30.01,West,264,3.0,7.0,69,0.02,,,0.02,weatherlink.com 1.10,2013-01-06 17:35:00,
2013-01-06 12:50:00,38.4,29.0,30.00,SW,214,4.0,8.0,68,0.01,,,0.02,weatherlink.com 1.10,2013-01-06 17:50:00,
2013-01-06 13:05:00,38.4,29.0,30.00,WSW,238,1.0,7.0,68,0.01,,,0.02,weatherlink.com 1.10,2013-01-06 18:05:00,
2013-01-06 13:20:00,38.4,29.0,30.00,SSW,211,1.0,5.0,69,0.01,,,0.02,weatherlink.com 1.10,2013-01-06 18:20:00,
2013-01-06 13:36:00,38.3,29.0,30.00,SSW,201,5.0,6.0,69,0.01,,,0.03,weatherlink.com 1.10,2013-01-06 18:36:00,
2013-01-06 13:51:00,38.3,29.0,30.00,SSW,198,2.0,7.0,69,0.01,,,0.03,weatherlink.com 1.10,2013-01-06 18:51:00,
2013-01-06 14:06:00,38.5,29.0,30.00,SW,222,1.0,6.0,69,0.01,,,0.03,weatherlink.com 1.10,2013-01-06 19:06:00,
2013-01-06 14:21:00,38.5,29.0,30.00,WSW,240,3.0,7.0,69,0.01,,,0.03,weatherlink.com 1.10,2013-01-06 19:21:00,
2013-01-06 14:36:00,38.3,29.0,30.00,WSW,246,3.0,9.0,70,0.00,,,0.03,weatherlink.com 1.10,2013-01-06 19:36:00,
2013-01-06 14:51:00,38.3,29.0,30.00,SSE,149,1.0,7.0,70,0.00,,,0.03,weatherlink.com 1.10,2013-01-06 19:51:00,
2013-01-06 15:06:00,38.3,29.0,30.00,SSW,212,0.0,4.0,70,0.01,,,0.04,weatherlink.com 1.10,2013-01-06 20:06:00,
2013-01-06 15:21:00,38.3,29.0,30.01,WSW,249,2.0,5.0,70,0.01,,,0.04,weatherlink.com 1.10,2013-01-06 20:21:00,
2013-01-06 15:36:00,38.4,30.0,30.02,WSW,238,5.0,6.0,71,0.01,,,0.04,weatherlink.com 1.10,2013-01-06 20:36:00,
2013-01-06 16:06:00,38.3,30.0,30.03,SSW,211,1.0,5.0,72,0.00,,,0.04,weatherlink.com 1.10,2013-01-06 21:06:00,
2013-01-06 16:21:00,38.0,30.0,30.03,WSW,239,4.0,7.0,73,0.00,,,0.04,weatherlink.com 1.10,2013-01-06 21:21:00,
2013-01-06 16:36:00,37.7,30.0,30.04,SSW,212,5.0,7.0,75,0.00,,,0.04,weatherlink.com 1.10,2013-01-06 21:36:00,
2013-01-06 16:51:00,37.5,31.0,30.04,SW,226,3.0,7.0,76,0.00,,,0.04,weatherlink.com 1.10,2013-01-06 21:51:00,
2013-01-06 17:06:00,37.1,31.0,30.05,SW,235,3.0,7.0,78,0.00,,,0.04,weatherlink.com 1.10,2013-01-06 22:06:00,
2013-01-06 17:21:00,36.5,32.0,30.05,WSW,239,1.0,6.0,82,0.00,,,0.04,weatherlink.com 1.10,2013-01-06 22:21:00,
2013-01-06 17:36:00,36.2,32.0,30.05,West,265,2.0,5.0,83,0.00,,,0.04,weatherlink.com 1.10,2013-01-06 22:36:00,
2013-01-06 17:51:00,36.0,31.0,30.06,WSW,255,3.0,5.0,83,0.00,,,0.04,weatherlink.com 1.10,2013-01-06 22:51:00,
2013-01-06 18:06:00,35.9,32.0,30.07,SSW,208,1.0,5.0,84,0.00,,,0.04,weatherlink.com 1.10,2013-01-06 23:06:00,
2013-01-06 18:21:00,36.0,32.0,30.07,WSW,249,3.0,7.0,84,0.00,,,0.04,weatherlink.com 1.10,2013-01-06 23:21:00,
2013-01-06 18:36:00,36.1,32.0,30.08,WSW,244,4.0,6.0,84,0.00,,,0.04,weatherlink.com 1.10,2013-01-06 23:36:00,
2013-01-06 18:51:00,36.0,32.0,30.09,WSW,245,4.0,5.0,84,0.00,,,0.04,weatherlink.com 1.10,2013-01-06 23:51:00,
2013-01-06 19:06:00,35.9,32.0,30.09,South,185,4.0,8.0,85,0.00,,,0.04,weatherlink.com 1.10,2013-01-07 00:06:00,
2013-01-06 19:21:00,35.8,32.0,30.09,SW,232,2.0,9.0,85,0.00,,,0.04,weatherlink.com 1.10,2013-01-07 00:21:00,
2013-01-06 19:36:00,35.8,32.0,30.10,SSW,205,1.0,5.0,85,0.00,,,0.04,weatherlink.com 1.10,2013-01-07 00:36:00,
2013-01-06 19:51:00,35.9,32.0,30.10,SW,233,5.0,6.0,85,0.00,,,0.04,weatherlink.com 1.10,2013-01-07 00:51:00,
2013-01-06 20:06:00,35.9,32.0,30.11,SSW,200,0.0,6.0,84,0.00,,,0.04,weatherlink.com 1.10,2013-01-07 01:06:00,
2013-01-06 20:21:00,35.7,32.0,30.11,NW,311,2.0,7.0,85,0.00,,,0.04,weatherlink.com 1.10,2013-01-07 01:21:00,
2013-01-06 20:36:00,35.7,32.0,30.12,West,263,0.0,6.0,86,0.00,,,0.04,weatherlink.com 1.10,2013-01-07 01:36:00,
2013-01-06 20:51:00,35.6,32.0,30.12,WNW,290,1.0,6.0,86,0.00,,,0.04,weatherlink.com 1.10,2013-01-07 01:51:00,
2013-01-06 21:06:00,35.3,32.0,30.12,WSW,238,2.0,6.0,86,0.00,,,0.04,weatherlink.com 1.10,2013-01-07 02:06:00,
2013-01-06 21:21:00,35.3,32.0,30.13,West,266,2.0,6.0,86,0.00,,,0.04,weatherlink.com 1.10,2013-01-07 02:21:00,
2013-01-06 21:36:00,35.3,32.0,30.14,SW,229,1.0,5.0,86,0.00,,,0.04,weatherlink.com 1.10,2013-01-07 02:36:00,
2013-01-06 21:51:00,35.2,31.0,30.14,WNW,295,1.0,5.0,86,0.00,,,0.04,weatherlink.com 1.10,2013-01-07 02:51:00,
2013-01-06 22:06:00,35.1,31.0,30.15,NW,310,2.0,5.0,86,0.00,,,0.04,weatherlink.com 1.10,2013-01-07 03:06:00,
2013-01-06 22:21:00,34.8,30.0,30.16,NW,320,5.0,9.0,84,0.00,,,0.04,weatherlink.com 1.10,2013-01-07 03:21:00,
2013-01-06 22:36:00,34.7,30.0,30.17,West,259,4.0,7.0,82,0.00,,,0.04,weatherlink.com 1.10,2013-01-07 03:36:00,
2013-01-06 22:51:00,34.7,29.0,30.18,West,259,3.0,9.0,79,0.00,,,0.04,weatherlink.com 1.10,2013-01-07 03:51:00,
2013-01-06 23:06:00,34.6,29.0,30.18,WNW,282,0.0,7.0,79,0.00,,,0.04,weatherlink.com 1.10,2013-01-07 04:06:00,
2013-01-06 23:21:00,34.4,29.0,30.19,WNW,282,1.0,6.0,79,0.00,,,0.04,weatherlink.com 1.10,2013-01-07 04:21:00,
2013-01-06 23:36:00,34.3,29.0,30.20,WNW,286,3.0,5.0,80,0.00,,,0.04,weatherlink.com 1.10,2013-01-07 04:36:00,
2013-01-06 23:51:00,34.2,29.0,30.21,NW,316,4.0,7.0,80,0.00,,,0.04,weatherlink.com 1.10,2013-01-07 04:51:00,